Time,TemperatureF,DewpointF,PressureIn,WindDirection,WindDirectionDegrees,WindSpeedMPH,WindSpeedGustMPH,Humidity,HourlyPrecipIn,Conditions,Clouds,dailyrainin,SoftwareType,DateUTC
2013-05-09 00:10:00,53.1,49.0,29.89,ESE,112,4.2,-999.0,86,-99.99,,,0.00,Acu-Link.com,2013-05-09 07:10:00,
2013-05-09 00:25:00,53.1,49.0,29.88,NE,45,2.7,-999.0,86,-99.99,,,0.00,Acu-Link.com,2013-05-09 07:25:00,
2013-05-09 00:40:00,52.9,48.8,29.89,SE,135,1.1,-999.0,86,-99.99,,,0.00,Acu-Link.com,2013-05-09 07:40:00,
2013-05-09 00:55:00,52.5,48.7,29.89,WNW,292,1.7,-999.0,87,-99.99,,,0.00,Acu-Link.com,2013-05-09 07:55:00,
2013-05-09 01:10:00,52.5,48.7,29.89,West,270,0.0,-999.0,87,-99.99,,,0.00,Acu-Link.com,2013-05-09 08:10:00,
2013-05-09 01:26:00,52.7,48.9,29.89,NNW,337,3.7,-999.0,87,-99.99,,,0.00,Acu-Link.com,2013-05-09 08:26:00,
2013-05-09 01:41:00,52.7,48.9,29.88,West,270,2.2,-999.0,87,-99.99,,,0.00,Acu-Link.com,2013-05-09 08:41:00,
2013-05-09 01:56:00,52.7,48.9,29.88,South,180,2.2,-999.0,87,-99.99,,,0.00,Acu-Link.com,2013-05-09 08:56:00,
2013-05-09 02:11:00,53.2,49.4,29.88,NNW,337,2.2,-999.0,87,-99.99,,,0.00,Acu-Link.com,2013-05-09 09:11:00,
2013-05-09 02:26:00,53.4,49.3,29.88,SSW,202,2.2,-999.0,86,-99.99,,,0.00,Acu-Link.com,2013-05-09 09:26:00,
2013-05-09 02:41:00,53.2,49.1,29.88,South,180,1.1,-999.0,86,-99.99,,,0.00,Acu-Link.com,2013-05-09 09:41:00,
2013-05-09 02:57:00,52.7,48.9,29.87,WSW,247,1.7,-999.0,87,-99.99,,,0.00,Acu-Link.com,2013-05-09 09:57:00,
2013-05-09 03:12:00,52.5,49.0,29.87,NE,45,3.2,-999.0,88,-99.99,,,0.00,Acu-Link.com,2013-05-09 10:12:00,
2013-05-09 03:28:00,52.2,48.8,29.87,North,0,2.2,-999.0,88,-99.99,,,0.00,Acu-Link.com,2013-05-09 10:28:00,
2013-05-09 03:43:00,51.8,48.4,29.87,WSW,247,2.7,-999.0,88,-99.99,,,0.00,Acu-Link.com,2013-05-09 10:43:00,
2013-05-09 03:58:00,51.6,48.5,29.87,ESE,112,0.0,-999.0,89,-99.99,,,0.00,Acu-Link.com,2013-05-09 10:58:00,
2013-05-09 04:13:00,51.6,48.5,29.87,WSW,247,1.7,-999.0,89,-99.99,,,0.00,Acu-Link.com,2013-05-09 11:13:00,
2013-05-09 04:28:00,51.4,48.3,29.87,West,270,0.0,-999.0,89,-99.99,,,0.00,Acu-Link.com,2013-05-09 11:28:00,
2013-05-09 04:44:00,51.1,48.3,29.87,NE,45,1.7,-999.0,90,-99.99,,,0.00,Acu-Link.com,2013-05-09 11:44:00,
2013-05-09 04:59:00,51.1,48.3,29.86,NE,45,0.0,-999.0,90,-99.99,,,0.00,Acu-Link.com,2013-05-09 11:59:00,
2013-05-09 05:14:00,50.7,48.2,29.87,East,90,0.0,-999.0,91,-99.99,,,0.00,Acu-Link.com,2013-05-09 12:14:00,
2013-05-09 05:30:00,50.4,48.2,29.87,South,180,0.0,-999.0,92,-99.99,,,0.00,Acu-Link.com,2013-05-09 12:30:00,
2013-05-09 05:45:00,50.0,47.8,29.87,WSW,247,0.0,-999.0,92,-99.99,,,0.00,Acu-Link.com,2013-05-09 12:45:00,
2013-05-09 06:01:00,49.8,47.9,29.87,South,180,0.0,-999.0,93,-99.99,,,0.00,Acu-Link.com,2013-05-09 13:01:00,
2013-05-09 06:16:00,49.8,47.9,29.88,South,180,0.0,-999.0,93,-99.99,,,0.00,Acu-Link.com,2013-05-09 13:16:00,
2013-05-09 06:31:00,49.8,47.9,29.88,SE,135,0.0,-999.0,93,-99.99,,,0.00,Acu-Link.com,2013-05-09 13:31:00,
2013-05-09 06:47:00,50.2,48.3,29.88,WSW,247,0.0,-999.0,93,-99.99,,,0.00,Acu-Link.com,2013-05-09 13:47:00,
2013-05-09 07:02:00,51.3,49.1,29.89,SE,135,0.0,-999.0,92,-99.99,,,0.00,Acu-Link.com,2013-05-09 14:02:00,
2013-05-09 07:17:00,53.6,50.1,29.89,East,90,0.0,-999.0,88,-99.99,,,0.00,Acu-Link.com,2013-05-09 14:17:00,
2013-05-09 07:33:00,55.9,50.8,29.89,WSW,247,3.2,-999.0,83,-99.99,,,0.00,Acu-Link.com,2013-05-09 14:33:00,
2013-05-09 07:48:00,57.7,51.2,29.90,SSE,157,2.7,-999.0,79,-99.99,,,0.00,Acu-Link.com,2013-05-09 14:48:00,
2013-05-09 08:03:00,57.2,51.1,29.91,SE,135,1.1,-999.0,80,-99.99,,,0.00,Acu-Link.com,2013-05-09 15:03:00,
2013-05-09 08:18:00,58.3,51.5,29.91,ESE,112,2.7,-999.0,78,-99.99,,,0.00,Acu-Link.com,2013-05-09 15:18:00,
2013-05-09 08:33:00,59.0,52.1,29.91,WNW,292,1.1,-999.0,78,-99.99,,,0.00,Acu-Link.com,2013-05-09 15:33:00,
2013-05-09 08:48:00,60.6,52.6,29.91,WNW,292,1.1,-999.0,75,-99.99,,,0.00,Acu-Link.com,2013-05-09 15:48:00,
2013-05-09 09:03:00,61.7,53.3,29.92,NW,315,2.2,-999.0,74,-99.99,,,0.00,Acu-Link.com,2013-05-09 16:03:00,
2013-05-09 09:19:00,62.2,53.1,29.92,West,270,1.7,-999.0,72,-99.99,,,0.00,Acu-Link.com,2013-05-09 16:19:00,
2013-05-09 09:34:00,63.5,53.5,29.92,SE,135,2.2,-999.0,70,-99.99,,,0.00,Acu-Link.com,2013-05-09 16:34:00,
2013-05-09 09:49:00,63.7,53.7,29.92,SW,225,3.2,-999.0,70,-99.99,,,0.00,Acu-Link.com,2013-05-09 16:49:00,
2013-05-09 10:04:00,64.4,54.0,29.91,East,90,0.0,-999.0,69,-99.99,,,0.00,Acu-Link.com,2013-05-09 17:04:00,
2013-05-09 10:20:00,65.7,54.0,29.91,SSE,157,3.7,-999.0,66,-99.99,,,0.00,Acu-Link.com,2013-05-09 17:20:00,
2013-05-09 10:35:00,66.6,54.5,29.91,SW,225,2.7,-999.0,65,-99.99,,,0.00,Acu-Link.com,2013-05-09 17:35:00,
2013-05-09 10:50:00,67.5,54.9,29.91,ENE,67,3.2,-999.0,64,-99.99,,,0.00,Acu-Link.com,2013-05-09 17:50:00,
2013-05-09 11:05:00,68.9,55.3,29.91,ESE,112,2.2,-999.0,62,-99.99,,,0.00,Acu-Link.com,2013-05-09 18:05:00,
2013-05-09 11:21:00,70.0,56.4,29.91,SSW,202,1.7,-999.0,62,-99.99,,,0.00,Acu-Link.com,2013-05-09 18:21:00,
2013-05-09 11:36:00,72.1,56.5,29.90,ESE,112,1.7,-999.0,58,-99.99,,,0.00,Acu-Link.com,2013-05-09 18:36:00,
2013-05-09 11:51:00,72.5,56.4,29.90,East,90,3.2,-999.0,57,-99.99,,,0.00,Acu-Link.com,2013-05-09 18:51:00,
2013-05-09 12:06:00,72.9,56.3,29.90,NNW,337,4.2,-999.0,56,-99.99,,,0.00,Acu-Link.com,2013-05-09 19:06:00,
2013-05-09 12:22:00,73.6,56.9,29.89,WSW,247,3.7,-999.0,56,-99.99,,,0.00,Acu-Link.com,2013-05-09 19:22:00,
2013-05-09 12:37:00,74.7,57.4,29.89,NE,45,2.7,-999.0,55,-99.99,,,0.00,Acu-Link.com,2013-05-09 19:37:00,
2013-05-09 12:52:00,75.6,57.8,29.89,West,270,4.7,-999.0,54,-99.99,,,0.00,Acu-Link.com,2013-05-09 19:52:00,
2013-05-09 13:08:00,75.4,58.1,29.89,WSW,247,2.7,-999.0,55,-99.99,,,0.00,Acu-Link.com,2013-05-09 20:08:00,
2013-05-09 13:23:00,75.6,57.8,29.88,WNW,292,2.2,-999.0,54,-99.99,,,0.00,Acu-Link.com,2013-05-09 20:23:00,
2013-05-09 13:38:00,74.3,56.6,29.88,ENE,67,2.2,-999.0,54,-99.99,,,0.00,Acu-Link.com,2013-05-09 20:38:00,
2013-05-09 13:53:00,74.8,57.0,29.88,WSW,247,3.7,-999.0,54,-99.99,,,0.00,Acu-Link.com,2013-05-09 20:53:00,
2013-05-09 14:08:00,74.8,56.5,29.88,East,90,7.8,-999.0,53,-99.99,,,0.00,Acu-Link.com,2013-05-09 21:08:00,
2013-05-09 14:24:00,75.2,56.3,29.87,WNW,292,5.8,-999.0,52,-99.99,,,0.00,Acu-Link.com,2013-05-09 21:24:00,
2013-05-09 14:39:00,74.7,55.9,29.87,NNE,22,4.2,-999.0,52,-99.99,,,0.00,Acu-Link.com,2013-05-09 21:39:00,
2013-05-09 14:54:00,74.8,56.0,29.87,WSW,247,3.2,-999.0,52,-99.99,,,0.00,Acu-Link.com,2013-05-09 21:54:00,
2013-05-09 15:09:00,74.8,55.4,29.86,SW,225,7.3,-999.0,51,-99.99,,,0.00,Acu-Link.com,2013-05-09 22:09:00,
2013-05-09 15:25:00,73.8,55.1,29.86,SW,225,3.2,-999.0,52,-99.99,,,0.00,Acu-Link.com,2013-05-09 22:25:00,
2013-05-09 15:40:00,75.6,56.7,29.85,WSW,247,3.7,-999.0,52,-99.99,,,0.00,Acu-Link.com,2013-05-09 22:40:00,
2013-05-09 15:55:00,73.9,54.6,29.84,NNE,22,4.7,-999.0,51,-99.99,,,0.00,Acu-Link.com,2013-05-09 22:55:00,
2013-05-09 16:10:00,74.1,55.3,29.83,SSW,202,2.2,-999.0,52,-99.99,,,0.00,Acu-Link.com,2013-05-09 23:10:00,
2013-05-09 16:26:00,73.6,55.4,29.83,NNW,337,6.3,-999.0,53,-99.99,,,0.00,Acu-Link.com,2013-05-09 23:26:00,
2013-05-09 16:41:00,73.0,54.8,29.83,WSW,247,6.8,-999.0,53,-99.99,,,0.00,Acu-Link.com,2013-05-09 23:41:00,
2013-05-09 16:56:00,72.1,55.0,29.83,WNW,292,3.7,-999.0,55,-99.99,,,0.00,Acu-Link.com,2013-05-09 23:56:00,
2013-05-09 17:11:00,72.5,54.9,29.83,WSW,247,3.2,-999.0,54,-99.99,,,0.00,Acu-Link.com,2013-05-10 00:11:00,
2013-05-09 17:26:00,72.0,54.4,29.83,SW,225,4.2,-999.0,54,-99.99,,,0.00,Acu-Link.com,2013-05-10 00:26:00,
2013-05-09 17:41:00,71.2,54.2,29.83,West,270,3.7,-999.0,55,-99.99,,,0.00,Acu-Link.com,2013-05-10 00:41:00,
2013-05-09 17:56:00,70.3,53.4,29.83,WNW,292,3.7,-999.0,55,-99.99,,,0.00,Acu-Link.com,2013-05-10 00:56:00,
2013-05-09 18:12:00,70.5,53.5,29.83,East,90,2.7,-999.0,55,-99.99,,,0.00,Acu-Link.com,2013-05-10 01:12:00,
2013-05-09 18:27:00,69.3,52.9,29.82,WSW,247,1.7,-999.0,56,-99.99,,,0.00,Acu-Link.com,2013-05-10 01:27:00,
2013-05-09 18:42:00,68.7,52.8,29.83,NW,315,3.7,-999.0,57,-99.99,,,0.00,Acu-Link.com,2013-05-10 01:42:00,
2013-05-09 18:58:00,66.4,52.5,29.83,SW,225,4.2,-999.0,61,-99.99,,,0.00,Acu-Link.com,2013-05-10 01:58:00,
2013-05-09 19:13:00,63.5,52.3,29.84,WNW,292,2.7,-999.0,67,-99.99,,,0.00,Acu-Link.com,2013-05-10 02:13:00,
2013-05-09 19:28:00,62.4,51.3,29.85,West,270,4.2,-999.0,67,-99.99,,,0.00,Acu-Link.com,2013-05-10 02:28:00,
2013-05-09 19:44:00,60.6,51.9,29.84,SW,225,2.7,-999.0,73,-99.99,,,0.00,Acu-Link.com,2013-05-10 02:44:00,
2013-05-09 19:59:00,60.1,51.4,29.85,WSW,247,4.7,-999.0,73,-99.99,,,0.00,Acu-Link.com,2013-05-10 02:59:00,
2013-05-09 20:14:00,58.1,51.3,29.86,WNW,292,6.8,-999.0,78,-99.99,,,0.00,Acu-Link.com,2013-05-10 03:14:00,
2013-05-09 20:29:00,57.2,50.4,29.86,SE,135,4.7,-999.0,78,-99.99,,,0.00,Acu-Link.com,2013-05-10 03:29:00,
2013-05-09 20:44:00,55.6,50.2,29.87,WNW,292,4.2,-999.0,82,-99.99,,,0.00,Acu-Link.com,2013-05-10 03:44:00,
2013-05-09 20:59:00,55.2,49.8,29.88,SW,225,4.2,-999.0,82,-99.99,,,0.00,Acu-Link.com,2013-05-10 03:59:00,
2013-05-09 21:15:00,54.9,49.8,29.88,WNW,292,2.7,-999.0,83,-99.99,,,0.00,Acu-Link.com,2013-05-10 04:15:00,
2013-05-09 21:30:00,54.9,49.8,29.89,SSW,202,3.7,-999.0,83,-99.99,,,0.00,Acu-Link.com,2013-05-10 04:30:00,
2013-05-09 21:45:00,54.1,49.4,29.89,NNE,22,2.7,-999.0,84,-99.99,,,0.00,Acu-Link.com,2013-05-10 04:45:00,
2013-05-09 22:00:00,54.0,49.6,29.89,NNW,337,2.7,-999.0,85,-99.99,,,0.00,Acu-Link.com,2013-05-10 05:00:00,
2013-05-09 22:16:00,54.0,49.6,29.90,West,270,4.2,-999.0,85,-99.99,,,0.00,Acu-Link.com,2013-05-10 05:16:00,
2013-05-09 22:31:00,53.6,49.2,29.90,West,270,3.2,-999.0,85,-99.99,,,0.00,Acu-Link.com,2013-05-10 05:31:00,
2013-05-09 22:46:00,53.4,49.3,29.90,NW,315,1.1,-999.0,86,-99.99,,,0.00,Acu-Link.com,2013-05-10 05:46:00,
2013-05-09 23:02:00,52.9,49.1,29.90,NNE,22,2.2,-999.0,87,-99.99,,,0.00,Acu-Link.com,2013-05-10 06:02:00,
2013-05-09 23:17:00,53.2,49.4,29.91,NNW,337,1.7,-999.0,87,-99.99,,,0.00,Acu-Link.com,2013-05-10 06:17:00,
2013-05-09 23:32:00,52.7,48.9,29.91,SW,225,3.2,-999.0,87,-99.99,,,0.00,Acu-Link.com,2013-05-10 06:32:00,
2013-05-09 23:47:00,52.7,48.9,29.91,North,0,3.7,-999.0,87,-99.99,,,0.00,Acu-Link.com,2013-05-10 06:47:00,